Location: Tauranga
(37.6860°S, 176.1670°E)
Time: 11:55:34
(UTC+13:00)

Daily predictions for brighter satellites

Satellite Brightness Start Highest point End
(mag) Time Altitude Azimuth Time Altitude Azimuth Time Altitude Azimuth
Cosmos 968 Rocket 3.5 19:57:45 10° NNW 20:02:56 83° ENE 20:08:09 10° SSE
Cosmos 220 Rocket 4.0 20:02:32 10° SSW 20:06:59 80° ESE 20:11:17 10° NNE
Cosmos 2369 Rocket 4.2 20:02:47 10° SW 20:07:49 32° WNW 20:12:48 10° NNW
Meteor 1-11 4.3 20:05:42 10° N 20:11:27 67° E 20:17:13 10° SSE
ISS -2.7 20:09:40 10° WNW 20:12:57 49° SW 20:16:17 10° SE
Cosmos 2123 Rocket 4.1 20:07:02 10° S 20:13:28 89° WNW 20:19:49 10° N
Cosmos 1455 2.3 20:09:34 10° S 20:13:31 84° W 20:17:25 10° N
Cosmos 1656 Rocket 4.1 20:10:52 10° SSW 20:16:33 67° WNW 20:22:12 10° N
YAOGAN 6 2.6 20:14:14 10° SSE 20:18:01 74° E 20:21:45 10° N
Okean-O 3.6 20:14:15 10° S 20:18:39 54° WSW 20:23:00 10° NNW
Aureole 2 Rocket 2.2 20:17:02 10° S 20:19:42 42° ESE 20:22:13 10° NE
NOAA 12 4.5 20:14:53 10° S 20:20:11 71° WSW 20:25:24 10° NNW
Cosmos 1703 4.1 20:19:31 10° NNW 20:23:21 54° W 20:27:14 10° S
CZ-4 R/B 4.5 20:22:34 10° SSE 20:26:49 89° ENE 20:30:58 10° NNW
Cosmos 1605 Rocket 4.2 20:25:55 10° N 20:32:02 77° W 20:38:18 10° S
Cosmos 1833 Rocket 4.1 20:28:43 10° NE 20:32:11 17° E 20:35:40 10° ESE
Envisat 3.7 20:32:14 10° S 20:37:18 59° WSW 20:42:18 10° NNW
Cosmos 1867 3.9 20:32:27 10° SSW 20:37:44 50° SE 20:41:44 17° NE
Cosmos 1340 Rocket 3.6 20:33:56 10° SSW 20:37:51 53° W 20:41:42 10° N
H-2A R/B 3.9 20:41:34 10° ESE 20:42:25 11° ESE 20:42:25 11° ESE
Cosmos 2173 Rocket 4.1 20:43:32 10° NNE 20:49:25 52° E 20:55:23 10° SSE
Cosmos 1777 Rocket 4.1 20:44:37 10° N 20:49:43 55° ENE 20:54:53 10° SSE
CZ-2D R/B 3.1 20:48:22 10° SSE 20:52:15 74° E 20:56:05 10° N
Cosmos 1939 Rocket 2.7 20:50:14 10° SSE 20:54:09 68° E 20:58:03 10° N
YAOGAN 1 3.2 20:51:58 10° S 20:56:19 61° WSW 21:00:37 10° NNW
CZ-4C R/B 3.0 20:48:56 10° NNW 20:57:12 89° NE 21:04:31 10° SSE
Cosmos 1802 Rocket 4.1 20:53:49 10° NNE 20:59:51 52° E 21:05:53 10° SSE
Cosmos 1869 3.4 21:00:02 10° S 21:04:03 54° E 21:05:39 32° NE
Cosmos 2082 Rocket 3.5 21:05:23 20° E 21:05:23 20° E 21:08:22 10° SE
Cosmos 1538 Rocket 4.5 20:59:24 10° S 21:04:24 42° ESE 21:06:28 29° ENE
CSL-04 Rocket 4.1 20:59:09 10° S 21:04:42 67° WSW 21:10:13 10° NNW
Centaur AC-112 4.2 21:04:58 10° WNW 21:07:19 14° NNW 21:08:07 13° N
GPS 2-04 Rocket1 2.5 21:04:57 10° WNW 21:08:23 55° N 21:09:00 47° NE
Haruka 4.2 20:55:22 10° W 21:08:40 43° NNW 21:11:13 25° NNE
DELTA 2 R/B (1) 3.7 21:03:01 10° W 21:08:41 74° S 21:12:31 21° ESE
Cosmos 1766 Rocket 4.1 21:09:15 34° ENE 21:10:14 39° E 21:14:27 10° SSE
Cosmos 2221 3.5 21:06:56 10° SSW 21:11:10 48° W 21:15:19 10° NNW
Cosmos 1892 3.1 21:11:34 39° E 21:11:34 39° E 21:15:09 10° SSE
PSLV R/B 3.0 21:09:14 10° WSW 21:11:38 54° NW 21:11:38 54° NW
ARGOS 4.4 21:08:03 10° SE 21:11:27 22° E 21:11:27 22° E
Cosmos 1725 Rocket 4.4 21:09:16 23° NNE 21:12:49 43° E 21:18:47 10° SSE
Lacrosse 4 Rocket 3.9 21:13:21 10° SE 21:13:48 10° SE 21:14:16 10° SE
DMSP B5D2-2 4.5 21:11:42 10° N 21:16:53 63° W 21:22:07 10° SSW
Cosmos 1076 Rocket 4.4 21:13:25 10° NNW 21:17:36 51° W 21:21:49 10° S
Cosmos 2100 Rocket 4.0 21:11:31 10° N 21:17:42 84° W 21:24:02 10° S
BREEZE-M DEB (TANK) 4.4 21:17:36 10° S 21:18:25 11° SSE 21:19:19 10° SE
Ariane Rocket 2.9 21:14:47 10° SSE 21:19:57 85° ENE 21:25:04 10° NNW
Lacrosse 5 rocket 3.5 21:15:59 10° N 21:16:52 15° N 21:16:52 15° N
ATLAS CENTAUR R/B 4.4 21:04:32 10° NW 21:20:58 63° SW 21:26:46 10° SSE
Cosmos 1408 Rocket 4.5 21:21:55 32° ESE 21:21:55 32° ESE 21:25:22 10° SSE
USA 229 DEB 3.6 21:14:58 10° SSW 21:21:51 90° ESE 21:25:18 31° NNE
USA 229 3.6 21:15:01 10° SSW 21:21:55 88° SE 21:25:22 31° NNE
Okean 3 Rocket 3.4 21:19:49 26° N 21:22:16 75° E 21:26:44 10° S
COSMOS 2406 3.3 21:16:44 10° NNW 21:22:25 78° WSW 21:28:10 10° SSE
Cosmos 1697 Rocket 3.9 21:18:03 10° S 21:22:45 26° ESE 21:23:50 24° ESE
Cosmos 2058 3.4 21:19:14 10° NNW 21:23:22 62° W 21:27:32 10° S
NOAA 11 4.5 21:18:18 10° S 21:23:51 70° WSW 21:29:18 10° NNW
MOS 1 Rocket 3.9 21:24:43 38° E 21:25:21 40° ESE 21:30:03 10° S
CZ-4 R/B 4.3 21:23:05 10° SSW 21:25:56 19° WSW 21:28:47 10° WNW
In-Cosmos 22 Rocket 4.2 21:21:30 10° N 21:27:17 84° E 21:33:13 10° S
NOSS 3-1 (A) 3.5 21:21:50 10° SSW 21:28:02 57° SE 21:29:46 40° ENE
FREGAT/IRIS 3.7 21:25:18 10° S 21:27:07 35° S 21:27:07 35° S
USA 215 3.3 21:26:25 10° SE 21:32:50 52° NE 21:39:12 10° NNW
USA 186 2.7 21:29:37 10° SSE 21:32:00 41° SSE 21:32:00 41° SSE
Cosmos 2016 Rocket 4.0 21:28:24 11° N 21:34:33 84° E 21:40:59 10° S
Cosmos 2369 4.4 21:30:53 10° S 21:36:08 36° ESE 21:36:54 34° ESE
Cosmos 2151 2.9 21:36:43 55° N 21:37:39 87° E 21:42:00 10° S
CZ-2C R/B 4.4 21:35:38 10° SE 21:38:40 25° ESE 21:38:40 25° ESE
MOS 1 4.2 21:35:25 10° SSE 21:41:13 81° ENE 21:44:50 24° N
CZ-2C R/B 3.0 21:39:24 25° N 21:42:22 59° W 21:47:33 10° SSW
NOSS 3-1 (C) 3.3 21:36:25 10° SW 21:42:33 71° WNW 21:44:18 44° N
SJ-6B 3.3 21:38:27 10° SSE 21:41:47 51° SE 21:41:47 51° SE
SL-08 R/B 4.4 21:38:54 24° N 21:42:47 82° E 21:49:09 10° S
Atlas 2A Centaur Rocket 4.0 21:17:02 10° WNW 21:44:32 46° NNW 21:46:52 37° NNE
Cosmos 1816 Rocket 4.5 21:38:44 10° S 21:44:52 59° E 21:46:04 50° NE
EXPRESS MD2 4.5 21:41:49 10° WSW 21:45:09 40° NW 21:45:50 38° NNW
ISS -0.6 21:48:55 10° SW 21:50:21 12° SSW 21:51:48 10° S
BREEZE-M R/B 4.3 21:42:28 10° SW 21:51:20 43° SSE 21:51:48 41° SE
Cosmos 1656 3.6 21:50:03 10° SSW 21:55:48 82° ESE 21:56:36 67° NE
Cosmos 1356 Rocket 4.3 21:56:40 10° SSW 22:00:37 43° W 22:00:59 41° WNW
Cosmos 2278 4.2 22:00:43 10° S 22:05:57 46° SE 22:05:57 46° SE
SPOT 3 Rocket 3.4 22:02:28 10° SSE 22:07:43 89° ENE 22:07:46 88° NNE
NOSS 2-3 (C) 4.1 22:05:51 10° SSW 22:12:28 83° ESE 22:12:32 83° ESE
Cosmos 1980 Rocket 3.1 22:10:15 10° S 22:14:45 35° SE 22:14:45 35° SE
Cosmos 1833 Rocket 3.1 22:09:56 10° NW 22:15:31 60° WSW 22:21:10 10° SSE
Resurs 01 Rocket 3.6 22:12:39 10° SSE 22:14:09 20° SSE 22:14:09 20° SSE
Cosmos 1680 Rocket 3.9 22:15:41 10° SSW 22:20:09 58° SSE 22:20:09 58° SSE
H-2A R/B 2.2 22:18:15 10° S 22:23:03 68° WSW 22:23:03 68° WSW
SJ 16-02 3.8 22:27:05 14° SSE 22:27:05 14° SSE 22:27:43 10° SSE
Tsikada Rocket 4.1 22:19:42 10° SSW 22:25:54 68° W 22:26:44 60° NW
Mayak 1.1 22:30:32 18° SSE 22:30:32 18° SSE 22:31:49 10° S
Meteor 2-3 Rocket 4.3 22:30:36 48° SSE 22:30:36 48° SSE 22:34:51 10° SSE
Cosmos 923 Rocket 4.5 22:29:57 10° SSW 22:34:35 59° WSW 22:34:35 59° WSW
ATLAS CENTAUR Rocket 3.8 22:06:36 10° W 22:38:08 50° NNW 22:38:39 50° N
Cosmos 2082 Rocket 3.0 22:47:05 44° W 22:47:52 47° WSW 22:53:20 10° S
ARGOS 4.1 22:47:32 10° S 22:52:38 42° WSW 22:52:58 42° W
Lacrosse 4 Rocket 3.5 22:48:41 10° SSW 22:50:47 27° SSW 22:50:47 27° SSW
Cosmos 1697 Rocket 3.9 23:01:30 10° SW 23:05:35 37° WSW 23:05:35 37° WSW
USA 215 4.2 23:09:30 10° SE 23:15:43 45° SW 23:21:55 10° WNW
SL-16 R/B 3.8 23:13:01 10° S 23:16:05 27° SSE 23:16:05 27° SSE
Cosmos 2322 Rocket 3.9 23:40:49 10° SSW 23:43:34 28° S 23:43:34 28° S
USA 267 4.0 23:49:25 49° SSW 23:49:25 49° SSW 23:54:15 10° SW
Cosmos 2360 Rocket 4.2 23:48:43 10° S 23:51:06 21° SSE 23:51:06 21° SSE
